User: anonymous   Login
Location: ???????
(54.9996°N, 37.9529°E)
Time: 09:49:58
(UTC+00:00)
Language:

Cosmos 1371 Rocket - Orbit

View from above orbital plane
View from above orbital plane
View from above satellite
View from above satellite

Ground track
Ground track

The orbit data is extracted from the following two-line orbital elements,

1 13242U 82051B   24169.93160324  .00000342  00000-0  12475-3 0  9999
2 13242  74.0440 338.9695 0025470 271.3950  88.4285 14.36673506200504
Epoch (UTC): 17 June 2024 22:21:30
Eccentricity: 0.0025470
inclination: 74.0440°
perigee height: 751 km
apogee height: 788 km
right ascension of ascending node: 338.9695°
argument of perigee: 271.3950°
revolutions per day: 14.36673506
mean anomaly at epoch: 88.4285°
orbit number at epoch: 20050

The dashed part of the orbit path shows where the satellite is in the earth's shadow,  

DLR